Content
SEND FEEDBACK

Daily
Averages
Monthly
Summary
United States of America

BOSTON, MASSACHUSETTS


Home > North America > United States > Massachusetts
Elevation: 1 meter     Latitude: 42 22N     Longitude: 071 02W

WEATHER
 
SELECT A DAY
Number of Records: 202,798;   Date Range: 1/1/95 - 8/14/14
 
SHARE

PRINT THIS DATA

[ ← Previous Day ]
WEATHER ALMANAC - 11 FEBRUARY, 2013
[ Next Day → ]
[ °F ]   °C
Weather ElementAverageHighLow
Temperature2.4 °C7.2 °C (5:54 pm)-5.6 °C (12:54 am)
Dewpoint0.3 °C6.1 °C (5:54 pm)-11.1 °C (12:54 am)
Humidity86.6 %100 % (4:38 pm)59 % (12:15 am)
Barometer1012.9 hPa1027.8 hPa (12:15 am)1002.7 hPa (10:54 pm)
Wind Speed11.7 km/h18.5 km/h (9:32 am)
Weather ElementAverage
Visibility8 km
Wind DirectionS (185.1 °)

Weather ElementTotal
Precipitation9.65 mm
Heating Degree Days17.6 (Base 18.3)
Averaged from 41 records on 11 February, 2013
WEATHER CONDITIONS BREAKOUT
WIND DIRECTION BREAKOUT
WEATHER BY HOUR - 11 FEBRUARY, 2013
[ °F ]   °C
Local TimeTemperatureDewpointHumidityBarometerVisibilityWind DirectionWind SpeedGust SpeedPrecipitationEventsConditions
12:15 AM-3 °C-10 °C59 %1027.8 hPa14.5 kmCalm0 mmMostly Cloudy
12:54 AM-5.6 °C-11.1 °C66 %1027.8 hPa16.1 kmSSW (200°)13 km/h0 mmMostly Cloudy
1:54 AM-3.9 °C-9.4 °C66 %1026.8 hPa16.1 kmSouth (180°)11.1 km/hMostly Cloudy
2:54 AM-4.4 °C-10 °C65 %1025.7 hPa16.1 kmSouth (170°)7.4 km/hMostly Cloudy
3:54 AM-4.4 °C-9.4 °C69 %1025.4 hPa16.1 kmSouth (190°)9.3 km/hMostly Cloudy
4:54 AM-3.9 °C-8.9 °C69 %1025.1 hPa16.1 kmSouth (170°)9.3 km/hOvercast
5:54 AM-3.3 °C-8.3 °C69 %1024.4 hPa14.5 kmSouth (190°)11.1 km/hOvercast
6:54 AM-2.8 °C-7.2 °C72 %1023.7 hPa16.1 kmSouth (180°)13 km/hOvercast
7:54 AM-2.2 °C-6.1 °C75 %1023 hPa16.1 kmSouth (170°)11.1 km/hOvercast
8:54 AM-1.1 °C-5 °C75 %1021.7 hPa8 kmSSE (160°)16.7 km/h0 mmSnowLight Snow
9:32 AM0 °C-3 °C80 %1020.3 hPa11.3 kmSSE (150°)18.5 km/h0.51 mmRainLight Freezing Rain
9:54 AM0.6 °C-2.2 °C82 %1019.6 hPa16.1 kmSSE (150°)18.5 km/h0.51 mmRainLight Ice Pellets
9:59 AM1 °C-2 °C81 %1019.3 hPa14.5 kmSE (140°)16.7 km/h0 mmRainLight Rain
10:54 AM1.1 °C-0.6 °C89 %1017.6 hPa9.7 kmSE (140°)14.8 km/h0.76 mmRainLight Rain
11:32 AM2 °C0 °C87 %1015.9 hPa9.7 kmSSE (150°)14.8 km/h0.51 mmRainLight Rain
11:44 AM2 °C0 °C87 %1015.6 hPa8 kmSE (140°)13 km/h0.51 mmRainLight Rain
11:54 AM1.7 °C0 °C89 %1014.9 hPa3.2 kmSE (140°)13 km/h0.51 mmRainLight Rain
12:17 PM2 °C1 °C93 %1013.9 hPa3.2 kmSE (140°)9.3 km/h0.25 mmRainLight Rain
12:54 PM2.2 °C1.7 °C97 %1012.5 hPa3.2 kmSSE (160°)11.1 km/h0.76 mmRainLight Rain
1:54 PM3.9 °C2.8 °C93 %1010.2 hPa3.2 kmSouth (190°)14.8 km/h1.02 mmRainLight Rain
2:54 PM4.4 °C3.3 °C93 %1008.8 hPa3.2 kmSouth (190°)16.7 km/h0.25 mmRainLight Rain
3:03 PM5 °C4 °C93 %1008.5 hPa9.7 kmSSW (200°)16.7 km/h0 mmRainLight Rain
3:54 PM5.6 °C5 °C96 %1007.8 hPa16.1 kmSSW (210°)11.1 km/h0 mmOvercast
4:19 PM6 °C5 °C93 %1007.5 hPa4 kmSW (220°)13 km/h0.25 mmRainLight Rain
4:38 PM6 °C6 °C100 %1006.8 hPa2.9 kmSSW (210°)11.1 km/h1.27 mmRainLight Rain
4:52 PM6 °C5 °C93 %1006.8 hPa4 kmSSW (200°)9.3 km/h1.27 mmOvercast
4:54 PM5.6 °C5 °C96 %1006.8 hPa3.2 kmSSW (210°)11.1 km/h1.27 mmOvercast
5:48 PM6 °C5 °C93 %1006.1 hPa4 kmSW (230°)9.3 km/h0 mmOvercast
5:54 PM7.2 °C6.1 °C93 %1005.8 hPa4 kmVariable7.4 km/h0 mmOvercast
6:12 PM6 °C6 °C100 %1005.8 hPa1.6 kmSSW (200°)9.3 km/hOvercast
6:23 PM6 °C5 °C93 %1005.4 hPa1.3 kmSouth (190°)7.4 km/hOvercast
6:49 PM4 °C4 °C100 %1005.4 hPa0.8 kmSSW (210°)9.3 km/hFogFog
6:54 PM5.6 °C4.4 °C92 %1005.4 hPa1.6 kmSSW (210°)9.3 km/h0 mmLight Drizzle
7:24 PM6 °C4 °C87 %1005.1 hPa4 kmSW (230°)11.1 km/h0 mmOvercast
7:54 PM5.6 °C5.6 °C100 %1004.4 hPa4 kmSW (230°)7.4 km/h0 mmOvercast
8:51 PM5 °C4 °C93 %1003.7 hPa4 kmSW (220°)7.4 km/hOvercast
8:54 PM5.6 °C5 °C96 %1003.7 hPa4 kmSW (230°)11.1 km/hOvercast
9:54 PM6.1 °C5 °C93 %1003 hPa4 kmSW (230°)14.8 km/hOvercast
10:19 PM7 °C6 °C93 %1003 hPa9.7 kmWest (260°)16.7 km/hOvercast
10:54 PM4.4 °C3.3 °C93 %1002.7 hPa4.8 kmNW (310°)11.1 km/hOvercast
11:54 PM3.9 °C3.3 °C96 %1003 hPa4.8 kmWNW (290°)13 km/hOvercast
Hourly data recorded from KBOS, located 0 kilometers away from Boston, Massachusetts







STORIES FROM OUR PARTNERS